TimeEST,TemperatureF,Dew PointF,Humidity,Sea Level PressureIn,VisibilityMPH,Wind Direction,Wind SpeedMPH,Gust SpeedMPH,PrecipitationIn,Events,Conditions,WindDirDegrees,DateUTC
12:53 AM,46.9,39.9,77,29.91,10.0,SW,17.3,28.8,N/A,,Clear,230,2013-01-20 05:53:00
1:53 AM,46.9,39.0,74,29.89,10.0,SW,17.3,33.4,N/A,,Clear,220,2013-01-20 06:53:00
2:53 AM,46.0,37.9,73,29.86,10.0,SW,19.6,27.6,N/A,,Clear,220,2013-01-20 07:53:00
3:53 AM,46.0,37.0,71,29.82,10.0,SW,17.3,28.8,N/A,,Clear,220,2013-01-20 08:53:00
4:53 AM,46.0,36.0,68,29.79,10.0,SW,18.4,26.5,N/A,,Clear,230,2013-01-20 09:53:00
5:53 AM,45.0,36.0,71,29.76,10.0,SW,18.4,26.5,N/A,,Clear,230,2013-01-20 10:53:00
6:53 AM,46.0,35.1,66,29.73,10.0,SW,17.3,26.5,N/A,,Clear,220,2013-01-20 11:53:00
7:53 AM,46.9,35.1,63,29.72,10.0,SW,20.7,28.8,N/A,,Clear,220,2013-01-20 12:53:00
8:53 AM,48.0,35.1,61,29.71,10.0,SSW,23.0,33.4,N/A,,Clear,210,2013-01-20 13:53:00
9:53 AM,48.9,35.1,59,29.70,10.0,SW,19.6,32.2,N/A,,Clear,230,2013-01-20 14:53:00
10:53 AM,51.1,34.0,52,29.67,10.0,SW,17.3,33.4,N/A,,Clear,220,2013-01-20 15:53:00
11:53 AM,53.1,33.1,47,29.62,10.0,SW,15.0,32.2,N/A,,Clear,230,2013-01-20 16:53:00
12:53 PM,53.1,33.1,47,29.59,10.0,SW,19.6,31.1,N/A,,Clear,220,2013-01-20 17:53:00
1:53 PM,55.0,28.0,35,29.60,10.0,WSW,19.6,32.2,N/A,,Clear,240,2013-01-20 18:53:00
2:53 PM,54.0,27.0,35,29.62,10.0,WSW,21.9,31.1,N/A,,Clear,250,2013-01-20 19:53:00
3:53 PM,51.1,27.0,39,29.65,10.0,West,11.5,21.9,N/A,,Clear,260,2013-01-20 20:53:00
4:53 PM,48.0,27.0,44,29.69,10.0,WNW,8.1,-,N/A,,Scattered Clouds,300,2013-01-20 21:53:00
5:53 PM,45.0,27.0,49,29.72,10.0,West,6.9,-,N/A,,Clear,280,2013-01-20 22:53:00
6:53 PM,42.1,15.1,34,29.78,10.0,NW,9.2,20.7,N/A,,Clear,320,2013-01-20 23:53:00
7:53 PM,39.0,15.1,38,29.81,10.0,NW,4.6,17.3,N/A,,Clear,320,2013-01-21 00:53:00
8:53 PM,35.1,15.1,44,29.86,10.0,WNW,12.7,21.9,N/A,,Clear,300,2013-01-21 01:53:00
9:53 PM,33.1,12.9,43,29.90,10.0,WNW,15.0,20.7,N/A,,Clear,300,2013-01-21 02:53:00
10:53 PM,30.9,10.9,43,29.92,10.0,WNW,6.9,-,N/A,,Clear,300,2013-01-21 03:53:00
11:53 PM,30.0,8.1,40,29.93,10.0,NW,8.1,20.7,N/A,,Clear,310,2013-01-21 04:53:00